CW9417 Weather Reports


Display with metric or nautical units.
time (UTC)temp
F
wind
direction
speed
MPH
gust
MPH
rain 1hr
in
rain 24hr
in
rain mn
in
humidity
%
barometer
mb
20210613201915 65 252 0.0 0.0 0.00 0.00 0.00 67 1024.6
20210613201409 65 252 0.0 0.0 0.00 0.00 0.00 67 1024.6
20210613200909 65 252 0.0 0.0 0.00 0.00 0.00 67 1024.6
20210613200408 66 252 0.0 0.0 0.00 0.00 0.00 66 1024.7
20210613195909 66 252 0.0 0.0 0.00 0.00 0.00 67 1024.8
20210613195407 66 252 0.0 0.0 0.00 0.00 0.00 64 1024.8
20210613194908 66 252 0.0 0.0 0.00 0.00 0.00 63 1024.8
20210613194410 67 250 0.0 0.0 0.00 0.00 0.00 64 1024.8
20210613193908 67 250 0.0 0.0 0.00 0.00 0.00 64 1024.9
20210613193409 67 250 0.0 0.0 0.00 0.00 0.00 64 1024.9
20210613192909 67 254 0.0 0.0 0.00 0.00 0.00 63 1024.9
20210613192410 67 244 0.0 0.0 0.00 0.00 0.00 64 1024.9
20210613191910 67 251 0.0 0.0 0.00 0.00 0.00 64 1024.9
20210613191409 67 229 0.0 0.0 0.00 0.00 0.00 62 1025.0
20210613190911 68 241 0.0 0.0 0.00 0.00 0.00 63 1025.0
20210613190410 68 245 0.0 0.0 0.00 0.00 0.00 64 1025.0
20210613185908 68 233 0.0 0.0 0.00 0.00 0.00 63 1024.9
20210613185410 68 244 0.0 1.0 0.00 0.00 0.00 62 1024.9
20210613184909 69 257 0.0 2.0 0.00 0.00 0.00 62 1024.9
20210613184407 69 237 0.0 2.0 0.00 0.00 0.00 60 1025.0
20210613183908 69 226 0.0 3.0 0.00 0.00 0.00 60 1025.0
20210613183408 69 240 1.0 3.0 0.00 0.00 0.00 59 1025.1
20210613182907 69 249 0.0 3.0 0.00 0.00 0.00 58 1025.1
20210613182405 70 243 0.0 1.0 0.00 0.00 0.00 58 1025.1
20210613181907 70 250 1.0 3.0 0.00 0.00 0.00 58 1025.1
20210613181408 71 253 1.0 3.0 0.00 0.00 0.00 57 1025.1
20210613180906 71 239 0.0 2.0 0.00 0.00 0.00 57 1025.1
20210613180404 71 5 0.0 3.0 0.00 0.00 0.00 56 1025.2
20210613175904 72 250 0.0 3.0 0.00 0.00 0.00 55 1025.2
20210613175406 72 238 1.0 5.0 0.00 0.00 0.00 53 1025.2
20210613174857 73 298 0.0 5.0 0.00 0.00 0.00 51 1025.2
20210613174350 74 233 0.0 3.0 0.00 0.00 0.00 49 1025.2
20210613173843 74 252 0.0 4.0 0.00 0.00 0.00 50 1025.2
20210613173337 75 278 0.0 3.0 0.00 0.00 0.00 49 1025.3
20210613172831 75 254 0.0 3.0 0.00 0.00 0.00 49 1025.3
20210613172327 75 239 0.0 3.0 0.00 0.00 0.00 49 1025.3
20210613171825 74 268 1.0 4.0 0.00 0.00 0.00 48 1025.4
20210613171326 74 219 1.0 4.0 0.00 0.00 0.00 48 1025.5
20210613170822 75 240 0.0 4.0 0.00 0.00 0.00 48 1025.5
20210613170323 75 238 0.0 2.0 0.00 0.00 0.00 47 1025.5
20210613165822 76 300 0.0 4.0 0.00 0.00 0.00 47 1025.5
20210613165323 76 227 0.0 4.0 0.00 0.00 0.00 47 1025.5
20210613164821 76 284 0.0 4.0 0.00 0.00 0.00 49 1025.5
20210613164326 75 138 0.0 3.0 0.00 0.00 0.00 49 1025.6
20210613163820 74 255 1.0 3.0 0.00 0.00 0.00 49 1025.5
20210613163320 74 316 1.0 3.0 0.00 0.00 0.00 48 1025.5
20210613162819 75 349 0.0 3.0 0.00 0.00 0.00 48 1025.6
20210613162317 74 229 1.0 3.0 0.00 0.00 0.00 50 1025.5
20210613161818 74 255 1.0 3.0 0.00 0.00 0.00 49 1025.5
20210613161319 74 32 0.0 2.0 0.00 0.00 0.00 50 1025.5
20210613160820 75 328 0.0 2.0 0.00 0.00 0.00 48 1025.6
20210613160316 75 239 1.0 3.0 0.00 0.00 0.00 49 1025.7
20210613155815 75 333 0.0 3.0 0.00 0.00 0.00 48 1025.7
20210613155318 75 304 0.0 3.0 0.00 0.00 0.00 49 1025.8
20210613154812 74 231 0.0 3.0 0.00 0.00 0.00 49 1025.8
20210613154316 74 242 0.0 3.0 0.00 0.00 0.00 50 1025.9
20210613153803 74 291 0.0 3.0 0.00 0.00 0.00 50 1026.0
20210613153253 74 77 1.0 3.0 0.00 0.00 0.00 50 1026.1
20210613152747 74 217 1.0 5.0 0.00 0.00 0.00 50 1026.1
20210613152244 74 18 1.0 5.0 0.00 0.00 0.00 49 1026.1
20210613151743 74 307 1.0 4.0 0.00 0.00 0.00 51 1026.2
20210613151242 74 226 1.0 3.0 0.00 0.00 0.00 52 1026.3
20210613150739 73 235 1.0 4.0 0.00 0.00 0.00 51 1026.4
20210613150239 73 242 1.0 4.0 0.00 0.00 0.00 52 1026.3
20210613145738 73 270 1.0 4.0 0.00 0.00 0.00 52 1026.3
20210613145238 73 348 1.0 4.0 0.00 0.00 0.00 51 1026.3
20210613144739 73 216 1.0 3.0 0.00 0.00 0.00 51 1026.4
20210613144239 73 257 1.0 5.0 0.00 0.00 0.00 52 1026.4
20210613143737 73 304 1.0 5.0 0.00 0.00 0.00 51 1026.4
20210613143238 73 210 1.0 5.0 0.00 0.00 0.00 52 1026.5
20210613142736 74 244 1.0 4.0 0.00 0.00 0.00 52 1026.5
20210613142235 74 230 1.0 4.0 0.00 0.00 0.00 52 1026.6
20210613141737 74 274 1.0 4.0 0.00 0.00 0.00 51 1026.6
20210613141237 74 238 1.0 4.0 0.00 0.00 0.00 51 1026.7
20210613140735 74 110 1.0 4.0 0.00 0.00 0.00 51 1026.7
20210613140236 73 243 1.0 4.0 0.00 0.00 0.00 52 1026.7
20210613135738 74 245 1.0 4.0 0.00 0.00 0.00 52 1026.7
20210613135233 73 334 0.0 5.0 0.00 0.00 0.00 51 1026.8
20210613134725 73 212 0.0 5.0 0.00 0.00 0.00 51 1026.8
20210613134228 74 283 1.0 3.0 0.00 0.00 0.00 51 1026.9
20210613133715 73 233 1.0 5.0 0.00 0.00 0.00 53 1026.9
20210613133208 74 239 1.0 5.0 0.00 0.00 0.00 51 1027.0
20210613132702 73 11 1.0 5.0 0.00 0.00 0.00 51 1027.0
20210613132200 73 258 1.0 5.0 0.00 0.00 0.00 52 1027.0
20210613131658 73 327 1.0 4.0 0.00 0.00 0.00 52 1027.1
20210613131157 73 335 1.0 4.0 0.00 0.00 0.00 51 1027.1
20210613130659 73 250 1.0 7.0 0.00 0.00 0.00 52 1027.1
20210613130157 73 307 1.0 7.0 0.00 0.00 0.00 52 1027.2
20210613125657 73 28 1.0 4.0 0.00 0.00 0.00 53 1027.3
20210613125158 72 240 1.0 4.0 0.00 0.00 0.00 52 1027.3
20210613124656 72 82 1.0 4.0 0.00 0.00 0.00 52 1027.3
20210613124153 72 289 1.0 4.0 0.00 0.00 0.00 52 1027.4
20210613123656 72 271 1.0 3.0 0.00 0.00 0.00 51 1027.4
20210613123152 72 269 1.0 4.0 0.00 0.00 0.00 51 1027.5
20210613122656 72 345 1.0 4.0 0.00 0.00 0.00 50 1027.5
20210613122153 72 287 1.0 4.0 0.00 0.00 0.00 49 1027.6
20210613121654 72 238 1.0 4.0 0.00 0.00 0.00 51 1027.7
20210613121153 72 312 1.0 4.0 0.00 0.00 0.00 50 1027.7
20210613120653 72 273 1.0 3.0 0.00 0.00 0.00 50 1027.7
20210613120157 72 316 1.0 3.0 0.00 0.00 0.00 50 1027.8
20210613115650 72 251 1.0 4.0 0.00 0.00 0.00 51 1027.8
20210613115143 71 264 2.0 5.0 0.00 0.00 0.00 51 1027.7
20210613114640 71 209 1.0 6.0 0.00 0.00 0.00 51 1027.8
20210613114132 72 229 1.0 6.0 0.00 0.00 0.00 50 1027.8
20210613113626 72 317 1.0 6.0 0.00 0.00 0.00 49 1027.8
20210613113124 72 240 0.0 6.0 0.00 0.00 0.00 51 1027.8
20210613112626 72 323 1.0 2.0 0.00 0.00 0.00 49 1027.8
20210613112125 71 246 1.0 3.0 0.00 0.00 0.00 50 1027.8
20210613111624 72 333 0.0 3.0 0.00 0.00 0.00 50 1027.8
20210613111124 71 255 0.0 3.0 0.00 0.00 0.00 51 1027.8
20210613110625 71 246 0.0 3.0 0.00 0.00 0.00 51 1027.9
20210613110122 71 240 1.0 3.0 0.00 0.00 0.00 50 1027.9
20210613105621 70 122 1.0 3.0 0.00 0.00 0.00 50 1028.0
20210613105120 71 256 1.0 4.0 0.00 0.00 0.00 51 1028.0
20210613104618 71 341 1.0 4.0 0.00 0.00 0.00 52 1027.9
20210613104122 70 255 1.0 4.0 0.00 0.00 0.00 54 1027.9
20210613103619 70 347 1.0 4.0 0.00 0.00 0.00 54 1027.9
20210613103120 70 108 1.0 4.0 0.00 0.00 0.00 52 1027.9
20210613102624 70 229 1.0 4.0 0.00 0.00 0.00 53 1028.0
20210613102118 70 15 1.0 4.0 0.00 0.00 0.00 52 1028.0
20210613101620 69 260 1.0 3.0 0.00 0.00 0.00 54 1028.0
20210613101121 69 293 1.0 4.0 0.00 0.00 0.00 55 1028.0
20210613100622 69 20 1.0 4.0 0.00 0.00 0.00 55 1028.0
20210613100116 69 240 1.0 4.0 0.00 0.00 0.00 56 1028.0
20210613095616 69 328 1.0 4.0 0.00 0.00 0.00 57 1028.1
20210613095116 69 112 1.0 3.0 0.00 0.00 0.00 59 1028.1
20210613094615 69 98 1.0 4.0 0.00 0.00 0.00 61 1028.2
20210613094113 68 231 1.0 5.0 0.00 0.00 0.00 64 1028.2
20210613093615 67 104 2.0 6.0 0.00 0.00 0.00 65 1028.2
20210613093112 67 93 2.0 6.0 0.00 0.00 0.00 63 1028.1
20210613092614 67 128 1.0 3.0 0.00 0.00 0.00 62 1028.2
20210613092113 67 235 1.0 3.0 0.00 0.00 0.00 63 1028.2
20210613091615 67 310 1.0 4.0 0.00 0.00 0.00 64 1028.1
20210613091114 66 346 1.0 4.0 0.00 0.00 0.00 64 1028.1
20210613090616 66 336 1.0 5.0 0.00 0.00 0.00 65 1028.2
20210613090112 67 340 1.0 5.0 0.00 0.00 0.00 63 1028.1
20210613085614 66 303 1.0 3.0 0.00 0.00 0.00 64 1028.1
20210613085114 66 248 0.0 3.0 0.00 0.00 0.00 63 1028.2
20210613084614 67 121 1.0 5.0 0.00 0.00 0.00 63 1028.1
20210613084114 67 98 1.0 5.0 0.00 0.00 0.00 64 1028.2
20210613083612 66 238 0.0 3.0 0.00 0.00 0.00 65 1028.2
20210613083113 66 205 0.0 3.0 0.00 0.00 0.00 65 1028.2
20210613082616 66 86 0.0 2.0 0.00 0.00 0.00 64 1028.1
20210613082114 65 110 0.0 2.0 0.00 0.00 0.00 65 1028.1
20210613081613 65 213 0.0 4.0 0.00 0.00 0.00 68 1028.1
20210613081114 65 232 0.0 4.0 0.00 0.00 0.00 64 1028.0
20210613080613 65 351 0.0 1.0 0.00 0.00 0.00 66 1028.0
20210613080114 64 240 0.0 0.0 0.00 0.00 0.00 68 1027.9
20210613075613 64 5 0.0 0.0 0.00 0.00 0.00 67 1027.9
20210613075116 64 235 0.0 0.0 0.00 0.00 0.00 67 1027.9
20210613074613 63 106 0.0 0.0 0.00 0.00 0.00 69 1027.9
20210613074111 63 112 0.0 3.0 0.00 0.00 0.00 70 1027.9
20210613073612 62 252 0.0 3.0 0.00 0.00 0.00 70 1027.9
20210613073113 62 223 0.0 2.0 0.00 0.00 0.00 71 1028.0
20210613072614 62 165 0.0 2.0 0.00 0.00 0.00 73 1027.9
20210613072110 61 229 0.0 3.0 0.00 0.00 0.00 73 1027.8
20210613071612 61 177 0.0 3.0 0.00 0.00 0.00 74 1027.9
20210613071108 60 221 0.0 3.0 0.00 0.00 0.00 76 1027.7
20210613070609 59 104 0.0 4.0 0.00 0.00 0.00 78 1027.7
20210613070107 59 223 0.0 4.0 0.00 0.00 0.00 79 1027.7
20210613065608 58 245 0.0 2.0 0.00 0.00 0.00 80 1027.6
20210613065107 58 229 0.0 2.0 0.00 0.00 0.00 82 1027.5
20210613064606 58 334 0.0 0.0 0.00 0.00 0.00 81 1027.4
20210613064105 57 108 0.0 1.0 0.00 0.00 0.00 80 1027.5
20210613063605 57 101 0.0 2.0 0.00 0.00 0.00 82 1027.4
20210613063106 57 356 0.0 2.0 0.00 0.00 0.00 82 1027.3
20210613062557 57 260 0.0 0.0 0.00 0.00 0.00 84 1027.4
20210613062052 57 236 0.0 0.0 0.00 0.00 0.00 86 1027.2
20210613061549 57 240 0.0 0.0 0.00 0.00 0.00 86 1027.1
20210613061040 56 232 0.0 1.0 0.00 0.00 0.00 86 1027.2
20210613060534 56 233 0.0 1.0 0.00 0.00 0.00 87 1027.2
20210613060044 56 229 0.0 0.0 0.00 0.00 0.00 88 1027.1
20210613055522 56 233 0.0 0.0 0.00 0.00 0.00 89 1027.0
20210613055016 55 231 0.0 2.0 0.00 0.00 0.00 90 1027.0
20210613054512 55 212 0.0 3.0 0.00 0.00 0.00 91 1027.1
20210613054008 55 266 0.0 3.0 0.00 0.00 0.00 92 1027.0
20210613053457 55 263 0.0 0.0 0.00 0.00 0.00 93 1027.0
20210613052953 54 233 0.0 0.0 0.00 0.00 0.00 93 1027.0
20210613052447 54 244 0.0 0.0 0.00 0.00 0.00 94 1027.0
20210613051939 54 257 0.0 0.0 0.00 0.00 0.00 94 1026.9
20210613051435 54 245 0.0 0.0 0.00 0.00 0.00 95 1026.9
20210613050929 54 256 0.0 0.0 0.00 0.00 0.00 95 1026.8
20210613050422 53 247 0.0 0.0 0.00 0.00 0.00 95 1026.7
20210613045917 53 255 0.0 0.0 0.00 0.00 0.00 95 1026.6
20210613045410 53 238 0.0 0.0 0.00 0.00 0.00 95 1026.6
20210613044905 53 238 0.0 0.0 0.00 0.00 0.00 95 1026.6
20210613044359 53 238 0.0 0.0 0.00 0.00 0.00 95 1026.5
20210613043852 53 238 0.0 0.0 0.00 0.00 0.00 95 1026.5
20210613043345 53 238 0.0 0.0 0.00 0.00 0.00 95 1026.5
20210613042839 52 238 0.0 0.0 0.00 0.00 0.00 95 1026.5
20210613042334 52 236 0.0 0.0 0.00 0.00 0.00 95 1026.4
20210613041830 52 236 0.0 0.0 0.00 0.00 0.00 95 1026.5
20210613041322 52 236 0.0 0.0 0.00 0.00 0.00 95 1026.4
20210613040816 52 236 0.0 0.0 0.00 0.00 0.00 95 1026.3
20210613040310 52 236 0.0 0.0 0.00 0.00 0.00 95 1026.4
20210613035804 52 236 0.0 0.0 0.00 0.00 0.00 94 1026.3
20210613035258 52 236 0.0 0.0 0.00 0.00 0.00 95 1026.4
20210613034754 52 236 0.0 0.0 0.00 0.00 0.00 95 1026.3
20210613034247 52 236 0.0 0.0 0.00 0.00 0.00 94 1026.3
20210613033740 51 235 0.0 0.0 0.00 0.00 0.00 94 1026.3
20210613033235 52 235 0.0 0.0 0.00 0.00 0.00 94 1026.2
20210613032728 52 235 0.0 0.0 0.00 0.00 0.00 94 1026.2
20210613032221 52 235 0.0 0.0 0.00 0.00 0.00 94 1026.2
20210613031716 52 235 0.0 0.0 0.00 0.00 0.00 94 1026.2
20210613031210 52 235 0.0 0.0 0.00 0.00 0.00 94 1026.2
20210613030704 52 235 0.0 0.0 0.00 0.00 0.00 94 1026.2
20210613030158 52 235 0.0 0.0 0.00 0.00 0.00 94 1026.1
20210613025652 52 235 0.0 0.0 0.00 0.00 0.00 94 1026.2
20210613025148 52 235 0.0 0.0 0.00 0.00 0.00 94 1026.1
20210613024640 52 235 0.0 0.0 0.00 0.00 0.00 94 1026.0
20210613024134 52 235 0.0 0.0 0.00 0.00 0.00 94 1026.0
20210613023628 52 235 0.0 0.0 0.00 0.00 0.00 94 1026.1
20210613023121 52 235 0.0 0.0 0.00 0.00 0.00 94 1026.0
20210613022615 52 235 0.0 0.0 0.00 0.00 0.00 94 1026.0
20210613022111 52 235 0.0 0.0 0.00 0.00 0.00 94 1026.0
20210613021606 52 235 0.0 0.0 0.00 0.00 0.00 94 1026.0
20210613021100 52 235 0.0 0.0 0.00 0.00 0.00 93 1026.1
20210613020552 52 235 0.0 0.0 0.00 0.00 0.00 93 1026.1
20210613020059 52 235 0.0 0.0 0.00 0.00 0.00 94 1026.1
20210613015541 52 235 0.0 0.0 0.00 0.00 0.00 93 1026.1
20210613015034 52 235 0.0 0.0 0.00 0.00 0.00 93 1026.1
20210613014529 52 235 0.0 0.0 0.00 0.00 0.00 93 1026.2
20210613014022 53 235 0.0 0.0 0.00 0.00 0.00 94 1026.1
20210613013518 52 235 0.0 0.0 0.00 0.00 0.00 93 1026.1
20210613013012 53 235 0.0 0.0 0.00 0.00 0.00 93 1026.2
20210613012505 53 234 0.0 0.0 0.00 0.00 0.00 93 1026.2
20210613011958 53 234 0.0 0.0 0.00 0.00 0.00 93 1026.3
20210613011501 53 234 0.0 0.0 0.00 0.00 0.00 93 1026.1
20210613010955 53 240 0.0 0.0 0.00 0.00 0.00 93 1026.2
20210613010453 53 240 0.0 0.0 0.00 0.00 0.00 93 1026.1
20210613005952 53 240 0.0 0.0 0.00 0.00 0.00 93 1026.1
20210613005451 53 240 0.0 0.0 0.00 0.00 0.00 93 1026.1
20210613004952 53 240 0.0 0.0 0.00 0.00 0.00 93 1026.1
20210613004448 53 240 0.0 0.0 0.00 0.00 0.00 93 1026.1
20210613003948 52 240 0.0 0.0 0.00 0.00 0.00 93 1026.1
20210613003449 52 240 0.0 0.0 0.00 0.00 0.00 92 1026.1
20210613002948 53 240 0.0 0.0 0.00 0.00 0.00 92 1026.1
20210613002446 53 240 0.0 0.0 0.00 0.00 0.00 92 1026.1
20210613001947 53 240 0.0 0.0 0.00 0.00 0.00 92 1026.1
20210613001445 53 240 0.0 0.0 0.00 0.00 0.00 92 1026.1
20210613000944 53 240 0.0 0.0 0.00 0.00 0.00 92 1026.0
20210613000443 53 240 0.0 0.0 0.00 0.00 0.00 92 1026.1
20210612235940 53 240 0.0 0.0 0.00 0.00 0.00 92 1026.1
20210612235436 53 240 0.0 0.0 0.00 0.00 0.00 92 1026.0
20210612234936 53 240 0.0 0.0 0.00 0.00 0.00 92 1026.1
20210612234433 53 243 0.0 0.0 0.00 0.00 0.00 92 1026.1
20210612233935 53 243 0.0 0.0 0.00 0.00 0.00 92 1026.1
20210612233433 53 243 0.0 0.0 0.00 0.00 0.00 91 1026.1
20210612232932 53 243 0.0 0.0 0.00 0.00 0.00 91 1026.0
20210612232433 53 243 0.0 0.0 0.00 0.00 0.00 91 1026.0
20210612231931 53 243 0.0 0.0 0.00 0.00 0.00 91 1026.0
20210612231432 53 243 0.0 0.0 0.00 0.00 0.00 91 1025.9
20210612230930 53 243 0.0 0.0 0.00 0.00 0.00 91 1025.9
20210612230429 53 243 0.0 0.0 0.00 0.00 0.00 90 1025.9
20210612225931 53 243 0.0 0.0 0.00 0.00 0.00 90 1025.8
20210612225427 53 261 0.0 0.0 0.00 0.00 0.00 90 1025.9
20210612224928 53 262 0.0 0.0 0.00 0.00 0.00 90 1025.9
20210612224428 54 262 0.0 0.0 0.00 0.00 0.00 90 1025.8
20210612223932 53 262 0.0 0.0 0.00 0.00 0.00 90 1025.8
20210612223423 53 293 0.0 0.0 0.00 0.00 0.00 90 1025.8
20210612222925 53 292 0.0 0.0 0.00 0.00 0.00 89 1025.7
20210612222425 53 238 0.0 0.0 0.00 0.00 0.00 89 1025.7
20210612221924 54 238 0.0 0.0 0.00 0.00 0.00 89 1025.7
20210612221427 54 238 0.0 0.0 0.00 0.00 0.00 89 1025.7
20210612220921 54 231 0.0 0.0 0.00 0.00 0.00 89 1025.7
20210612220422 54 245 0.0 0.0 0.00 0.00 0.00 89 1025.6
20210612215923 54 245 0.0 0.0 0.00 0.00 0.00 89 1025.6
20210612215423 54 245 0.0 0.0 0.00 0.00 0.00 88 1025.6
20210612214922 54 245 0.0 0.0 0.00 0.00 0.00 88 1025.5
20210612214419 55 245 0.0 0.0 0.00 0.00 0.00 88 1025.5
20210612213920 55 231 0.0 0.0 0.00 0.00 0.00 88 1025.5
20210612213418 55 238 0.0 0.0 0.00 0.00 0.00 88 1025.4
20210612212921 55 236 0.0 0.0 0.00 0.00 0.00 87 1025.3
20210612212419 55 236 0.0 0.0 0.00 0.00 0.00 87 1025.3
20210612211919 55 236 0.0 0.0 0.00 0.00 0.00 87 1025.2
20210612211417 55 236 0.0 0.0 0.00 0.00 0.00 86 1025.3
20210612210919 55 236 0.0 0.0 0.00 0.00 0.00 86 1025.2
20210612210422 55 236 0.0 0.0 0.00 0.00 0.00 86 1025.2
20210612205916 55 234 0.0 0.0 0.00 0.00 0.00 85 1025.2
20210612205417 55 240 0.0 0.0 0.00 0.00 0.00 85 1025.3
20210612204917 56 240 0.0 0.0 0.00 0.00 0.00 84 1025.2
20210612204413 56 238 0.0 0.0 0.00 0.00 0.00 84 1025.2
20210612203911 56 234 0.0 0.0 0.00 0.00 0.00 84 1025.1
20210612203412 56 240 0.0 0.0 0.00 0.00 0.00 83 1025.0
20210612202917 56 244 0.0 0.0 0.00 0.00 0.00 83 1025.0
20210612202413 56 237 0.0 0.0 0.00 0.00 0.00 82 1025.0